CZ-6A DEB, 60840

Orbit data source: Space-Track

CZ-6A DEB, 60840 is space debris in LEO originally from a launch on Tue, 06 Aug 2024 UTC launched from the Taiyaun Space Center, China (TSC). Debris objects in space refer to the collection of defunct objects orbiting the Earth. Examples of debris include non-operational satellites, rocket bodies, and fragments generated from explosions, collisions, or faulty payload assembly.

Loading next visibility...
Identifier
60840, 2024-140HT
Orbit
LEO
Country
Flag of CNCN / PRC
Related business
Manufacturer
SAST
Mission
Spacecraft
Bus & Motor
Unknown
Mass
Unknown
Launch date (UTC)
2024-08-06 (1 year ago)
Launch vehicle
Unknown
Launch site
Taiyaun Space Center, China (TSC)
Object type
Payload
Rocket body
Debris
Shape & HBR
Unknown shape, 0.1 m
Radar Cross Section
Small (<0.1 m²)

Expand to show TLE details & history
Last TLE update: 2 days ago

TLE from 2 days ago
0 CZ-6A DEB
1 60840U 24140HT  25312.42532744  .00011074  00000-0  16008-2 0  9993
2 60840  88.9869 295.0555 0122739 256.9724 101.7768 14.71023312 66295
Epoch: 2025-11-08T10:12Z
TLE epoch observation values (Epoch: 2025-11-08T10:12:28.290Z)
Latitude
-0.0001°
Longitude
94.0825°
Altitude
679.571 km
Speed
7.507 km/s
True Right ascension
19h 40m 13s
True Declination
0° 00' 00"
Sunlit
Object was in daylight at epoch
Visualization orbit readout
Latitude
Unknown
Longitude
Unknown
Altitude
Unknown
Speed
Unknown
Apparent Right ascension
Unknown
Apparent Declination
Unknown
Sunlit
N/A
Visualization observer readout
Local Sidereal Time
20:02:08
Azimuth
Unknown
Elevation
Unknown
Doppler factor
Unknown
Orbital elements
Apogee altitude
741.001 km
Perigee altitude
568.361 km
Semi-major axis
7,032.818 km
Eccentricity
0.01227
Inclination
88.9869°
RAAN
295.0555°
Arg. of periapsis
256.9724°
True anomaly
103.14925°
Mean anomaly
101.7768°
Eccentric anomaly
102.46347°
Mean motion
3.68001 °/min
Orbital period
97.83 mins
BSTAR
0.0016008
Loading maneuver chart data...
Computing Atmospheric mass density...

Documentation

Showing up to 5 results
|